Regional Weather Roundup
Issued by NWS

Home | Current Version | Previous Version | Graphics & Text | Print | Product List | Glossary On
Versions: 1 2 3 4 5 6 7 8 9 10 11 12 13 14 15 16 17 18 19 20 21 22 23 24 25 26 27 28 29 30 31 32 33 34 35 36 37 38 39 40 41 42 43 44 45 46 47 48
000
ASUS45 KBOU 262107
RWRCO

WEATHER ROUNDUP FOR COLORADO
NATIONAL WEATHER SERVICE DENVER/BOULDER CO
200 PM MST THU FEB 26 2015

NOTE: "FAIR" INDICATES FEW OR NO CLOUDS BELOW 12000 FEET WITH NO
SIGNIFICANT WEATHER AND/OR OBSTRUCTIONS TO VISIBILITY.

COZ001>005-013-030-031-262200-
...NORTHWEST COLORADO...

CITY           SKY/WX    TMP DP  RH WIND       PRES   REMARKS
CRAIG          CLOUDY    29  20  69 CALM      29.92F
HAYDEN         PTSUNNY   27  12  54 NW5       29.90F WCI  21
MEEKER         CLOUDY    34  18  52 W9        29.88F WCI  27
MOUNT WERNER   NOT AVBL
STEAMBOAT SPGS CLOUDY    27  13  54 N3        29.90F
WALDEN         CLOUDY    21   5  49 SE3       29.86F
$$

COZ006>008-011-262200-
...WEST CENTRAL VALLEYS...

CITY           SKY/WX    TMP DP  RH WIND       PRES   REMARKS
GRAND JUNCTION CLOUDY    40  17  39 CALM      29.89F
MONTROSE       CLOUDY    32  17  54 CALM      29.91F
EAGLE          CLOUDY    36  10  35 SW10      29.87F
RIFLE          CLOUDY    39   7  26 VRB3      29.88F
DELTA          CLOUDY    38  28  67 SW7       29.90F
NUCLA          CLOUDY    36  14  41 N5        29.92F
$$

COZ017>023-064>068-262200-
...SOUTHWEST COLORADO...

CITY           SKY/WX    TMP DP  RH WIND       PRES   REMARKS
DURANGO        CLOUDY    34  23  64 NE6       29.91F WCI  29
CORTEZ         MOSUNNY   39  25  57 SW9       29.90F
PAGOSA SPRINGS CLOUDY    34  18  51 SW3       29.90F
TELLURIDE      CLOUDY    31   4  31 SW8       29.87F WCI  24
WOLF CREEK PAS CLOUDY    14   7  73 SW9G21    29.88F WCI   2
$$

COZ009-010-012-014-032>034-037-058>063-262200-
...CENTRAL COLORADO...

CITY           SKY/WX    TMP DP  RH WIND       PRES   REMARKS
ASPEN          CLOUDY    30   7  37 N3        29.83F
BUENA VISTA    CLOUDY    22  11  63 CALM      29.86F
COPPER MTN     LGT SNOW  14   7  73 W14       29.77S WCI  -1
BERTHOUD PASS  SNOW       3  -4  72 NW14G22   29.75F VSB 1/2 WCI -15
COTTONWOOD PAS CLOUDY    23  12  63 CALM      29.82F
GUNNISON       CLOUDY    25  10  54 E3        29.90F
KREMMLING      CLOUDY    27  18  69 NE6       29.89F HAZE    WCI  20
LEADVILLE      CLOUDY    18   6  59 NW8       29.79F WCI   8
MONARCH PASS   CLOUDY     9   5  85 MISG      29.89F
SALIDA         CLOUDY    26  16  65 SE16G24   29.94F WCI  14
SUNLIGHT       CLOUDY    19  12  73 CALM        N/A  HAZE
WILKERSON PASS CLOUDY    18  14  86 SW3       29.82F
$$

COZ069>075-262200-
...SAN LUIS VALLEY/SANGRE DE CRISTO MOUNTAINS...

CITY           SKY/WX    TMP DP  RH WIND       PRES   REMARKS
ALAMOSA        CLOUDY    29  20  69 SE7       29.89F WCI  22
LA VETA PASS   LGT SNOW  21  16  79 S7G18     29.85F WCI  13
SAGUACHE       CLOUDY    28  18  64 S8        29.90F WCI  20
$$

COZ035-036-038>040-262200-
...NORTHERN COLORADO FRONT RANGE...

CITY           SKY/WX    TMP DP  RH WIND       PRES   REMARKS
DENVER INTL AP LGT SNOW  16  11  80 E13       30.11F WCI   2
DMNS CITY PARK   N/A     16  10  77 NE9       30.11F WCI   5
AURORA         LGT SNOW  15   9  76 NE13      30.09F WCI   2
FRONT RANGE AP NOT AVBL
ERIE MUNI ARPT LGT SNOW  18  12  78 E7        30.14S WCI   9
BOULDER MUN AP LGT SNOW  19  14  79 NE7       30.13S WCI  10
CENTENNIAL     LGT SNOW  16  11  80 NE12      30.06S VSB 1   WCI   3
BROOMFIELD     LGT SNOW  18  10  73 NE8       30.10F VSB 1   WCI   7
FORT COLLINS   PTSUNNY   19  10  68 E7        30.16F WCI  10
LONGMONT       LGT SNOW  23  12  62 E6        30.17S WCI  16
$$

COZ041-046-047-076>085-087-088-262200-
...PIKES PEAK/PALMER DIVIDE AND SOUTHERN FOOTHILLS...

CITY           SKY/WX    TMP DP  RH WIND       PRES   REMARKS
COLO. SPRINGS  LGT SNOW  14  10  84 SE20      30.05F VSB 3/4 WCI  -3
A. F. ACADEMY  LGT SNOW  14   8  76 SE15      30.01S WCI  -2
ELLICOTT       NOT AVBL
FALCON         LGT SNOW  14   8  76 S15       30.02F WCI  -2
FORT CARSON    SNOW      16  10  79 S16       30.05F VSB 1/2 WCI   0
LIMON          LGT SNOW  14  11  87 SE9       30.13F FOG     WCI   2
MONUMENT HILL  LGT SNOW  19   9  63 S12       29.97F WCI   7
TRINIDAD       LGT SNOW  20  14  77 NE7       30.05F WCI  11
$$

COZ042>045-048>051-090-091-262200-
...NORTHEAST COLORADO...

CITY           SKY/WX    TMP DP  RH WIND       PRES   REMARKS
GREELEY ARPT   CLOUDY    19   9  63 E10       30.17S WCI   8
AKRON          CLOUDY    15   8  73 E8        30.20S WCI   4
BURLINGTON     LGT SNOW  17   9  70 E7        30.25S WCI   8
WRAY           CLOUDY    20   7  58 CALM      30.30S
STERLING       CLOUDY    19  10  68 NE7       30.25F HAZE    WCI  10
HOLYOKE        NOT AVBL
FORT MORGAN    CLOUDY    17   8  67 E8        30.22S WCI   6
$$

COZ086-089-092>099-262200-
...SOUTHEAST COLORADO...

CITY           SKY/WX    TMP DP  RH WIND       PRES   REMARKS
PUEBLO         LGT SNOW  18  14  84 SE14      30.15F FOG     WCI   4
LA JUNTA       LGT SNOW  20  13  74 SE14      30.21F WCI   7
LAMAR          LGT SNOW  20  14  77 SE13      30.25F WCI   7
SPRINGFIELD      N/A     18  12  77 E8        30.21F WCI   8
$$


USA.gov is the U.S. government's official web portal to all federal, state and local government web resources and services.